Weather History for KDSV - May, 2013

Change the Weather History Date:

Monday, May 6, 2013

  Actual Average Record
Temperature  
Mean Temperature 60 °F -  
Max Temperature 79 °F 66 °F 95 °F (1950)
Min Temperature 42 °F 40 °F 24 °F (1968)
Degree Days  
Heating Degree Days 5    
Growing Degree Days 10 (Base 50)    
Moisture  
Dew Point 38 °F    
Average Humidity 44    
Maximum Humidity 73    
Minimum Humidity 20    
Precipitation  
Precipitation 0.00 in - - ()
Sea Level Pressure  
Sea Level Pressure 30.13 in    
Wind  
Wind Speed 6 mph (SE)    
Max Wind Speed 12 mph    
Max Gust Speed 18 mph    
Visibility 10 miles    
Events      
Averages and records for this station are not official NWS values.
T = Trace of Precipitation, MM = Missing Value Source: NWS Daily Summary

Daily Weather History Graph

Daily Weather History Graph

Search for Another Location

Airport or City:

Trip Planner

Search our weather history database for the weather conditions in past years. The results will help you decide how hot, cold, wet, or windy it might be!

Date:

Astronomy

May. 06, 2013 Rise Set
Actual Time 5:58 AM EDT 8:16 PM EDT
Civil Twilight 5:27 AM EDT 8:48 PM EDT
Nautical Twilight 4:48 AM EDT 9:27 PM EDT
Astronomical Twilight 4:05 AM EDT 10:10 PM EDT
Moon 4:04 AM EDT (5/6) 5:11 PM EDT (5/6)
Length of Visible Light 15h 20m
Length of Day
14h 17m
Waning Crescent, 11% of the Moon is Illuminated
May 6
Waning Crescent
May 9
New
May 18
First Quarter
May 25
Full
May 31
Last Quarter

Hourly Weather History & Observations

Time (EDT) Temp. Windchill Dew Point Humidity Pressure Visibility Wind Dir Wind Speed Gust Speed Precip Events Conditions
12:54 AM 48.9 °F - 34.0 °F 56% 30.17 in 10.0 mi SE 4.6 mph - N/A   Clear
1:54 AM 46.9 °F - 34.0 °F 61% 30.17 in 10.0 mi SE 8.1 mph - N/A   Clear
2:54 AM 46.9 °F - 34.0 °F 61% 30.17 in 10.0 mi South 5.8 mph - N/A   Clear
3:54 AM 44.1 °F 40.1 °F 34.0 °F 68% 30.18 in 10.0 mi SSE 6.9 mph - N/A   Clear
4:54 AM 42.1 °F 38.4 °F 34.0 °F 73% 30.18 in 10.0 mi SE 5.8 mph - N/A   Clear
5:54 AM 42.1 °F 37.7 °F 34.0 °F 73% 30.19 in 10.0 mi SSE 6.9 mph - N/A   Clear
6:54 AM 45.0 °F 40.1 °F 36.0 °F 71% 30.21 in 10.0 mi SSE 9.2 mph - N/A   Clear
7:54 AM 52.0 °F - 37.9 °F 59% 30.20 in 10.0 mi SSE 8.1 mph - N/A   Clear
8:54 AM 57.9 °F - 37.9 °F 47% 30.20 in 10.0 mi SE 6.9 mph - N/A   Clear
9:54 AM 63.0 °F - 37.9 °F 40% 30.19 in 10.0 mi South 6.9 mph - N/A   Clear
10:54 AM 66.9 °F - 36.0 °F 32% 30.18 in 10.0 mi SSE 8.1 mph - N/A   Clear
11:54 AM 70.0 °F - 35.1 °F 28% 30.16 in 10.0 mi Calm Calm - N/A   Clear
12:54 PM 73.9 °F - 36.0 °F 25% 30.13 in 10.0 mi Variable 4.6 mph - N/A   Clear
1:54 PM 75.9 °F - 36.0 °F 23% 30.11 in 10.0 mi Variable 5.8 mph - N/A   Clear
2:54 PM 78.1 °F - 37.0 °F 23% 30.08 in 10.0 mi SE 8.1 mph - N/A   Clear
3:54 PM 77.0 °F - 36.0 °F 23% 30.06 in 10.0 mi Variable 4.6 mph 17.3 mph N/A   Clear
4:54 PM 78.1 °F - 34.0 °F 20% 30.04 in 10.0 mi SSE 6.9 mph - N/A   Clear
5:54 PM 78.1 °F - 36.0 °F 22% 30.04 in 10.0 mi SSE 11.5 mph 18.4 mph N/A   Clear
6:54 PM 75.9 °F - 37.0 °F 24% 30.04 in 10.0 mi SE 8.1 mph - N/A   Clear
7:54 PM 71.1 °F - 42.1 °F 35% 30.05 in 10.0 mi SE 8.1 mph - N/A   Clear
8:54 PM 68.0 °F - 44.1 °F 42% 30.07 in 10.0 mi SSE 4.6 mph - N/A   Clear
9:54 PM 64.0 °F - 46.0 °F 52% 30.09 in 10.0 mi ESE 8.1 mph - N/A   Clear
10:54 PM 64.9 °F - 46.9 °F 52% 30.11 in 10.0 mi East 8.1 mph - N/A   Clear
11:54 PM 63.0 °F - 46.9 °F 56% 30.11 in 10.0 mi ESE 5.8 mph - N/A   Clear